Tracking 35051 objects as of 17-Aug-2026
HD Live streaming from Space Station
objects crossing your sky now

SALYUT 7 DEB


SALYUT 7 DEB is no longer on orbit


NORAD ID: 15305
Int'l Code: 1982-033DU
Launch date: April 19, 1982
Source: Commonwealth of Independent States (former USSR) (CIS)
Launch site: TYURATAM MISSILE AND SPACE COMPLEX (TTMTR)
Decay date: 1985-12-09

Note: This is SATELLITE DEBRIS
Your satellite tracking list
Your tracking list is empty




NASA's NSSDC Master Catalog

Two Line Element Set (TLE):
1 15305U 82033 DU 85308.43623359  .00208576 +00000-0 +43005-3 0  9992
2 15305 051.6268 288.9939 0004241 109.9923 250.5270 15.98579675204634
Source of the keplerian elements: AFSPC